Year,Month,Day,Hour,Minute,Value (Times are PST for temperature in C)
2015,08,09,01,16,14.80
2015,08,09,01,17,14.80
2015,08,09,01,18,14.80
2015,08,09,01,19,14.80
2015,08,09,01,20,14.80
2015,08,09,01,21,14.80
2015,08,09,01,22,14.80
2015,08,09,01,23,14.80
2015,08,09,01,24,14.80
2015,08,09,01,25,14.80
2015,08,09,01,26,14.80
2015,08,09,01,27,14.80
2015,08,09,01,28,14.80
2015,08,09,01,29,14.80
2015,08,09,01,30,14.80
2015,08,09,01,31,14.80
2015,08,09,01,32,14.80
2015,08,09,01,33,14.80
2015,08,09,01,34,14.80
2015,08,09,01,35,14.80
2015,08,09,01,36,14.80
2015,08,09,01,37,14.80
2015,08,09,01,38,14.80
2015,08,09,01,39,14.80
2015,08,09,01,40,14.80
2015,08,09,01,41,14.80
2015,08,09,01,42,14.80
2015,08,09,01,43,14.80
2015,08,09,01,44,14.80
2015,08,09,01,45,14.80
2015,08,09,01,46,15.70
2015,08,09,01,47,15.70
2015,08,09,01,48,15.70
2015,08,09,01,49,15.70
2015,08,09,01,50,15.70
2015,08,09,01,51,15.70
2015,08,09,01,52,15.70
2015,08,09,01,53,15.70
2015,08,09,01,54,15.70
2015,08,09,01,55,15.70
2015,08,09,01,56,15.70
2015,08,09,01,57,15.70
2015,08,09,01,58,15.70
2015,08,09,01,59,15.70
2015,08,09,02,00,15.70
2015,08,09,02,01,15.70
2015,08,09,02,02,15.70
2015,08,09,02,03,15.70
2015,08,09,02,04,15.70
2015,08,09,02,05,15.70
2015,08,09,02,06,15.70
2015,08,09,02,07,15.70
2015,08,09,02,08,15.70
2015,08,09,02,09,15.70
2015,08,09,02,10,15.70
2015,08,09,02,11,15.70
2015,08,09,02,12,15.70
2015,08,09,02,13,15.70
2015,08,09,02,14,15.70
2015,08,09,02,15,15.70
2015,08,09,02,16,14.80
2015,08,09,02,17,14.80
2015,08,09,02,18,14.80
2015,08,09,02,19,14.80
2015,08,09,02,20,14.80
2015,08,09,02,21,14.80
2015,08,09,02,22,14.80
2015,08,09,02,23,14.80
2015,08,09,02,24,14.80
2015,08,09,02,25,14.80
2015,08,09,02,26,14.80
2015,08,09,02,27,14.80
2015,08,09,02,28,14.80
2015,08,09,02,29,14.80
2015,08,09,02,30,14.80
2015,08,09,02,31,14.80
2015,08,09,02,32,14.80
2015,08,09,02,33,14.80
2015,08,09,02,34,14.80
2015,08,09,02,35,14.80
2015,08,09,02,36,14.80
2015,08,09,02,37,14.80
2015,08,09,02,38,14.80
2015,08,09,02,39,14.80
2015,08,09,02,40,14.80
2015,08,09,02,41,14.80
2015,08,09,02,42,14.80
2015,08,09,02,43,14.80
2015,08,09,02,44,14.80
2015,08,09,02,45,14.80
2015,08,09,02,46,16.20
2015,08,09,02,47,16.20
2015,08,09,02,48,16.20
2015,08,09,02,49,16.20
2015,08,09,02,50,16.20
2015,08,09,02,51,16.20
2015,08,09,02,52,16.20
2015,08,09,02,53,16.20
2015,08,09,02,54,16.20
2015,08,09,02,55,16.20
2015,08,09,02,56,16.20
2015,08,09,02,57,16.20
2015,08,09,02,58,16.20
2015,08,09,02,59,16.20
2015,08,09,03,00,16.20
2015,08,09,03,01,16.20
2015,08,09,03,02,16.20
2015,08,09,03,03,16.20
2015,08,09,03,04,16.20
2015,08,09,03,05,16.20
2015,08,09,03,06,16.20
2015,08,09,03,07,16.20
2015,08,09,03,08,16.20
2015,08,09,03,09,16.20
2015,08,09,03,10,16.20
2015,08,09,03,11,16.20
2015,08,09,03,12,16.20
2015,08,09,03,13,16.20
2015,08,09,03,14,16.20
2015,08,09,03,15,16.20
2015,08,09,03,16,15.60
2015,08,09,03,17,15.60
2015,08,09,03,18,15.60
2015,08,09,03,19,15.60
2015,08,09,03,20,15.60
2015,08,09,03,21,15.60
2015,08,09,03,22,15.60
2015,08,09,03,23,15.60
2015,08,09,03,24,15.60
2015,08,09,03,25,15.60
2015,08,09,03,26,15.60
2015,08,09,03,27,15.60
2015,08,09,03,28,15.60
2015,08,09,03,29,15.60
2015,08,09,03,30,15.60
2015,08,09,03,31,15.60
2015,08,09,03,32,15.60
2015,08,09,03,33,15.60
2015,08,09,03,34,15.60
2015,08,09,03,35,15.60
2015,08,09,03,36,15.60
2015,08,09,03,37,15.60
2015,08,09,03,38,15.60
2015,08,09,03,39,15.60
2015,08,09,03,40,15.60
2015,08,09,03,41,15.60
2015,08,09,03,42,15.60
2015,08,09,03,43,15.60
2015,08,09,03,44,15.60
2015,08,09,03,45,15.60
2015,08,09,03,46,14.60
2015,08,09,03,47,14.60
2015,08,09,03,48,14.60
2015,08,09,03,49,14.60
2015,08,09,03,50,14.60
2015,08,09,03,51,14.60
2015,08,09,03,52,14.60
2015,08,09,03,53,14.60
2015,08,09,03,54,14.60
2015,08,09,03,55,14.60
2015,08,09,03,56,14.60
2015,08,09,03,57,14.60
2015,08,09,03,58,14.60
2015,08,09,03,59,14.60
2015,08,09,04,00,14.60
2015,08,09,04,01,14.60
2015,08,09,04,02,14.60
2015,08,09,04,03,14.60
2015,08,09,04,04,14.60
2015,08,09,04,05,14.60
2015,08,09,04,06,14.60
2015,08,09,04,07,14.60
2015,08,09,04,08,14.60
2015,08,09,04,09,14.60
2015,08,09,04,10,14.60
2015,08,09,04,11,14.60
2015,08,09,04,12,14.60
2015,08,09,04,13,14.60
2015,08,09,04,14,14.60
2015,08,09,04,15,14.60
2015,08,09,04,16,14.20
2015,08,09,04,17,14.20
2015,08,09,04,18,14.20
2015,08,09,04,19,14.20
2015,08,09,04,20,14.20
2015,08,09,04,21,14.20
2015,08,09,04,22,14.20
2015,08,09,04,23,14.20
2015,08,09,04,24,14.20
2015,08,09,04,25,14.20
2015,08,09,04,26,14.20
2015,08,09,04,27,14.20
2015,08,09,04,28,14.20
2015,08,09,04,29,14.20
2015,08,09,04,30,14.20
2015,08,09,04,31,14.20
2015,08,09,04,32,14.20
2015,08,09,04,33,14.20
2015,08,09,04,34,14.20
2015,08,09,04,35,14.20
2015,08,09,04,36,14.20
2015,08,09,04,37,14.20
2015,08,09,04,38,14.20
2015,08,09,04,39,14.20
2015,08,09,04,40,14.20
2015,08,09,04,41,14.20
2015,08,09,04,42,14.20
2015,08,09,04,43,14.20
2015,08,09,04,44,14.20
2015,08,09,04,45,14.20
2015,08,09,04,46,14.30
2015,08,09,04,47,14.30
2015,08,09,04,48,14.30
2015,08,09,04,49,14.30
2015,08,09,04,50,14.30
2015,08,09,04,51,14.30
2015,08,09,04,52,14.30
2015,08,09,04,53,14.30
2015,08,09,04,54,14.30
2015,08,09,04,55,14.30
2015,08,09,04,56,14.30
2015,08,09,04,57,14.30
2015,08,09,04,58,14.30
2015,08,09,04,59,14.30
2015,08,09,05,00,14.30
2015,08,09,05,01,14.30
2015,08,09,05,02,14.30
2015,08,09,05,03,14.30
2015,08,09,05,04,14.30
2015,08,09,05,05,14.30
2015,08,09,05,06,14.30
2015,08,09,05,07,14.30
2015,08,09,05,08,14.30
2015,08,09,05,09,14.30
2015,08,09,05,10,14.30
2015,08,09,05,11,14.30
2015,08,09,05,12,14.30
2015,08,09,05,13,14.30
2015,08,09,05,14,14.30
2015,08,09,05,15,14.30
2015,08,09,05,16,14.30
2015,08,09,05,17,14.30
2015,08,09,05,18,14.30
2015,08,09,05,19,14.30
2015,08,09,05,20,14.30
2015,08,09,05,21,14.30
2015,08,09,05,22,14.30
2015,08,09,05,23,14.30
2015,08,09,05,24,14.30
2015,08,09,05,25,14.30
2015,08,09,05,26,14.30
2015,08,09,05,27,14.30
2015,08,09,05,28,14.30
2015,08,09,05,29,14.30
2015,08,09,05,30,14.30
2015,08,09,05,31,14.30
2015,08,09,05,32,14.30
2015,08,09,05,33,14.30
2015,08,09,05,34,14.30
2015,08,09,05,35,14.30
2015,08,09,05,36,14.30
2015,08,09,05,37,14.30
2015,08,09,05,38,14.30
2015,08,09,05,39,14.30
2015,08,09,05,40,14.30
2015,08,09,05,41,14.30
2015,08,09,05,42,14.30
2015,08,09,05,43,14.30
2015,08,09,05,44,14.30
2015,08,09,05,45,14.30
2015,08,09,05,46,14.10
2015,08,09,05,47,14.10
2015,08,09,05,48,14.10
2015,08,09,05,49,14.10
2015,08,09,05,50,14.10
2015,08,09,05,51,14.10
2015,08,09,05,52,14.10
2015,08,09,05,53,14.10
2015,08,09,05,54,14.10
2015,08,09,05,55,14.10
2015,08,09,05,56,14.10
2015,08,09,05,57,14.10
2015,08,09,05,58,14.10
2015,08,09,05,59,14.10
2015,08,09,06,00,14.10
2015,08,09,06,01,14.10
2015,08,09,06,02,14.10
2015,08,09,06,03,14.10
2015,08,09,06,04,14.10
2015,08,09,06,05,14.10
2015,08,09,06,06,14.10
2015,08,09,06,07,14.10
2015,08,09,06,08,14.10
2015,08,09,06,09,14.10
2015,08,09,06,10,14.10
2015,08,09,06,11,14.10
2015,08,09,06,12,14.10
2015,08,09,06,13,14.10
2015,08,09,06,14,14.10
2015,08,09,06,15,14.10
2015,08,09,06,16,14.00
2015,08,09,06,17,14.00
2015,08,09,06,18,14.00
2015,08,09,06,19,14.00
2015,08,09,06,20,14.00
2015,08,09,06,21,14.00
2015,08,09,06,22,14.00
2015,08,09,06,23,14.00
2015,08,09,06,24,14.00
2015,08,09,06,25,14.00
2015,08,09,06,26,14.00
2015,08,09,06,27,14.00
2015,08,09,06,28,14.00
2015,08,09,06,29,14.00
2015,08,09,06,30,14.00
2015,08,09,06,31,14.00
2015,08,09,06,32,14.00
2015,08,09,06,33,14.00
2015,08,09,06,34,14.00
2015,08,09,06,35,14.00
2015,08,09,06,36,14.00
2015,08,09,06,37,14.00
2015,08,09,06,38,14.00
2015,08,09,06,39,14.00
2015,08,09,06,40,14.00
2015,08,09,06,41,14.00
2015,08,09,06,42,14.00
2015,08,09,06,43,14.00
2015,08,09,06,44,14.00
2015,08,09,06,45,14.00
2015,08,09,06,46,13.40
2015,08,09,06,47,13.40
2015,08,09,06,48,13.40
2015,08,09,06,49,13.40
2015,08,09,06,50,13.40
2015,08,09,06,51,13.40
2015,08,09,06,52,13.40
2015,08,09,06,53,13.40
2015,08,09,06,54,13.40
2015,08,09,06,55,13.40
2015,08,09,06,56,13.40
2015,08,09,06,57,13.40
2015,08,09,06,58,13.40
2015,08,09,06,59,13.40
2015,08,09,07,00,13.40
2015,08,09,07,01,13.40
2015,08,09,07,02,13.40
2015,08,09,07,03,13.40
2015,08,09,07,04,13.40
2015,08,09,07,05,13.40
2015,08,09,07,06,13.40
2015,08,09,07,07,13.40
2015,08,09,07,08,13.40
2015,08,09,07,09,13.40
2015,08,09,07,10,13.40
2015,08,09,07,11,13.40
2015,08,09,07,12,13.40
2015,08,09,07,13,13.40
2015,08,09,07,14,13.40
2015,08,09,07,15,13.40
2015,08,09,07,16,13.60
2015,08,09,07,17,13.60
2015,08,09,07,18,13.60
2015,08,09,07,19,13.60
2015,08,09,07,20,13.60
2015,08,09,07,21,13.60
2015,08,09,07,22,13.60
2015,08,09,07,23,13.60
2015,08,09,07,24,13.60
2015,08,09,07,25,13.60
2015,08,09,07,26,13.60
2015,08,09,07,27,13.60
2015,08,09,07,28,13.60
2015,08,09,07,29,13.60
2015,08,09,07,30,13.60
2015,08,09,07,31,13.60
2015,08,09,07,32,13.60
2015,08,09,07,33,13.60
2015,08,09,07,34,13.60
2015,08,09,07,35,13.60
2015,08,09,07,36,13.60
2015,08,09,07,37,13.60
2015,08,09,07,38,13.60
2015,08,09,07,39,13.60
2015,08,09,07,40,13.60
2015,08,09,07,41,13.60
2015,08,09,07,42,13.60
2015,08,09,07,43,13.60
2015,08,09,07,44,13.60
2015,08,09,07,45,13.60
2015,08,09,07,46,13.60
2015,08,09,07,47,13.60
2015,08,09,07,48,13.60
2015,08,09,07,49,13.60
2015,08,09,07,50,13.60
2015,08,09,07,51,13.60
2015,08,09,07,52,13.60
2015,08,09,07,53,13.60
2015,08,09,07,54,13.60
2015,08,09,07,55,13.60
2015,08,09,07,56,13.60
2015,08,09,07,57,13.60
2015,08,09,07,58,13.60
2015,08,09,07,59,13.60
2015,08,09,08,00,13.60
2015,08,09,08,01,13.60
2015,08,09,08,02,13.60
2015,08,09,08,03,13.60
2015,08,09,08,04,13.60
2015,08,09,08,05,13.60
2015,08,09,08,06,13.60
2015,08,09,08,07,13.60
2015,08,09,08,08,13.60
2015,08,09,08,09,13.60
2015,08,09,08,10,13.60
2015,08,09,08,11,13.60
2015,08,09,08,12,13.60
2015,08,09,08,13,13.60
2015,08,09,08,14,13.60
2015,08,09,08,15,13.60
2015,08,09,08,16,13.70
2015,08,09,08,17,13.70
2015,08,09,08,18,13.70
2015,08,09,08,19,13.70
2015,08,09,08,20,13.70
2015,08,09,08,21,13.70
2015,08,09,08,22,13.70
2015,08,09,08,23,13.70
2015,08,09,08,24,13.70
2015,08,09,08,25,13.70
2015,08,09,08,26,13.70
2015,08,09,08,27,13.70
2015,08,09,08,28,13.70
2015,08,09,08,29,13.70
2015,08,09,08,30,13.70
2015,08,09,08,31,13.70
2015,08,09,08,32,13.70
2015,08,09,08,33,13.70
2015,08,09,08,34,13.70
2015,08,09,08,35,13.70
2015,08,09,08,36,13.70
2015,08,09,08,37,13.70
2015,08,09,08,38,13.70
2015,08,09,08,39,13.70
2015,08,09,08,40,13.70
2015,08,09,08,41,13.70
2015,08,09,08,42,13.70
2015,08,09,08,43,13.70
2015,08,09,08,44,13.70
2015,08,09,08,45,13.70
2015,08,09,08,46,14.10
2015,08,09,08,47,14.10
2015,08,09,08,48,14.10
2015,08,09,08,49,14.10
2015,08,09,08,50,14.10
2015,08,09,08,51,14.10
2015,08,09,08,52,14.10
2015,08,09,08,53,14.10
2015,08,09,08,54,14.10
2015,08,09,08,55,14.10
2015,08,09,08,56,14.10
2015,08,09,08,57,14.10
2015,08,09,08,58,14.10
2015,08,09,08,59,14.10
2015,08,09,09,00,14.10
2015,08,09,09,01,14.10
2015,08,09,09,02,14.10
2015,08,09,09,03,14.10
2015,08,09,09,04,14.10
2015,08,09,09,05,14.10
2015,08,09,09,06,14.10
2015,08,09,09,07,14.10
2015,08,09,09,08,14.10
2015,08,09,09,09,14.10
2015,08,09,09,10,14.10
2015,08,09,09,11,14.10
2015,08,09,09,12,14.10
2015,08,09,09,13,14.10
2015,08,09,09,14,14.10
2015,08,09,09,15,14.10
2015,08,09,09,16,14.90
2015,08,09,09,17,14.90
2015,08,09,09,18,14.90
2015,08,09,09,19,14.90
2015,08,09,09,20,14.90
2015,08,09,09,21,14.90
2015,08,09,09,22,14.90
2015,08,09,09,23,14.90
2015,08,09,09,24,14.90
2015,08,09,09,25,14.90
2015,08,09,09,26,14.90
2015,08,09,09,27,14.90
2015,08,09,09,28,14.90
2015,08,09,09,29,14.90
2015,08,09,09,30,14.90
2015,08,09,09,31,14.90
2015,08,09,09,32,14.90
2015,08,09,09,33,14.90
2015,08,09,09,34,14.90
2015,08,09,09,35,14.90
2015,08,09,09,36,14.90
2015,08,09,09,37,14.90
2015,08,09,09,38,14.90
2015,08,09,09,39,14.90
2015,08,09,09,40,14.90
2015,08,09,09,41,14.90
2015,08,09,09,42,14.90
2015,08,09,09,43,14.90
2015,08,09,09,44,14.90
2015,08,09,09,45,14.90
2015,08,09,09,46,14.30
2015,08,09,09,47,14.30
2015,08,09,09,48,14.30
2015,08,09,09,49,14.30
2015,08,09,09,50,14.30
2015,08,09,09,51,14.30
2015,08,09,09,52,14.30
2015,08,09,09,53,14.30
2015,08,09,09,54,14.30
2015,08,09,09,55,14.30
2015,08,09,09,56,14.30
2015,08,09,09,57,14.30
2015,08,09,09,58,14.30
2015,08,09,09,59,14.30
2015,08,09,10,00,14.30
2015,08,09,10,01,14.30
2015,08,09,10,02,14.30
2015,08,09,10,03,14.30
2015,08,09,10,04,14.30
2015,08,09,10,05,14.30
2015,08,09,10,06,14.30
2015,08,09,10,07,14.30
2015,08,09,10,08,14.30
2015,08,09,10,09,14.30
2015,08,09,10,10,14.30
2015,08,09,10,11,14.30
2015,08,09,10,12,14.30
2015,08,09,10,13,14.30
2015,08,09,10,14,14.30
2015,08,09,10,15,14.30
2015,08,09,10,16,13.70
2015,08,09,10,17,13.70
2015,08,09,10,18,13.70
2015,08,09,10,19,13.70
2015,08,09,10,20,13.70
2015,08,09,10,21,13.70
2015,08,09,10,22,13.70
2015,08,09,10,23,13.70
2015,08,09,10,24,13.70
2015,08,09,10,25,13.70
2015,08,09,10,26,13.70
2015,08,09,10,27,13.70
2015,08,09,10,28,13.70
2015,08,09,10,29,13.70
2015,08,09,10,30,13.70
2015,08,09,10,31,13.70
2015,08,09,10,32,13.70
2015,08,09,10,33,13.70
2015,08,09,10,34,13.70
2015,08,09,10,35,13.70
2015,08,09,10,36,13.70
2015,08,09,10,37,13.70
2015,08,09,10,38,13.70
2015,08,09,10,39,13.70
2015,08,09,10,40,13.70
2015,08,09,10,41,13.70
2015,08,09,10,42,13.70
2015,08,09,10,43,13.70
2015,08,09,10,44,13.70
2015,08,09,10,45,13.70
2015,08,09,10,46,13.30
2015,08,09,10,47,13.30
2015,08,09,10,48,13.30
2015,08,09,10,49,13.30
2015,08,09,10,50,13.30
2015,08,09,10,51,13.30
2015,08,09,10,52,13.30
2015,08,09,10,53,13.30
2015,08,09,10,54,13.30
2015,08,09,10,55,13.30
2015,08,09,10,56,13.30
2015,08,09,10,57,13.30
2015,08,09,10,58,13.30
2015,08,09,10,59,13.30
2015,08,09,11,00,13.30
2015,08,09,11,01,13.30
2015,08,09,11,02,13.30
2015,08,09,11,03,13.30
2015,08,09,11,04,13.30
2015,08,09,11,05,13.30
2015,08,09,11,06,13.30
2015,08,09,11,07,13.30
2015,08,09,11,08,13.30
2015,08,09,11,09,13.30
2015,08,09,11,10,13.30
2015,08,09,11,11,13.30
2015,08,09,11,12,13.30
2015,08,09,11,13,13.30
2015,08,09,11,14,13.30
2015,08,09,11,15,13.30
2015,08,09,11,16,14.20
2015,08,09,11,17,14.20
2015,08,09,11,18,14.20
2015,08,09,11,19,14.20
2015,08,09,11,20,14.20
2015,08,09,11,21,14.20
2015,08,09,11,22,14.20
2015,08,09,11,23,14.20
2015,08,09,11,24,14.20
2015,08,09,11,25,14.20
2015,08,09,11,26,14.20
2015,08,09,11,27,14.20
2015,08,09,11,28,14.20
2015,08,09,11,29,14.20
2015,08,09,11,30,14.20
2015,08,09,11,31,14.20
2015,08,09,11,32,14.20
2015,08,09,11,33,14.20
2015,08,09,11,34,14.20
2015,08,09,11,35,14.20
2015,08,09,11,36,14.20
2015,08,09,11,37,14.20
2015,08,09,11,38,14.20
2015,08,09,11,39,14.20
2015,08,09,11,40,14.20
2015,08,09,11,41,14.20
2015,08,09,11,42,14.20
2015,08,09,11,43,14.20
2015,08,09,11,44,14.20
2015,08,09,11,45,14.20
2015,08,09,11,46,15.20
2015,08,09,11,47,15.20
2015,08,09,11,48,15.20
2015,08,09,11,49,15.20
2015,08,09,11,50,15.20
2015,08,09,11,51,15.20
2015,08,09,11,52,15.20
2015,08,09,11,53,15.20
2015,08,09,11,54,15.20
2015,08,09,11,55,15.20
2015,08,09,11,56,15.20
2015,08,09,11,57,15.20
2015,08,09,11,58,15.20
2015,08,09,11,59,15.20
2015,08,09,12,00,15.20
2015,08,09,12,01,15.20
2015,08,09,12,02,15.20
2015,08,09,12,03,15.20
2015,08,09,12,04,15.20
2015,08,09,12,05,15.20
2015,08,09,12,06,15.20
2015,08,09,12,07,15.20
2015,08,09,12,08,15.20
2015,08,09,12,09,15.20
2015,08,09,12,10,15.20
2015,08,09,12,11,15.20
2015,08,09,12,12,15.20
2015,08,09,12,13,15.20
2015,08,09,12,14,15.20
2015,08,09,12,15,15.20
2015,08,09,12,16,15.10
2015,08,09,12,17,15.10
2015,08,09,12,18,15.10
2015,08,09,12,19,15.10
2015,08,09,12,20,15.10
2015,08,09,12,21,15.10
2015,08,09,12,22,15.10
2015,08,09,12,23,15.10
2015,08,09,12,24,15.10
2015,08,09,12,25,15.10
2015,08,09,12,26,15.10
2015,08,09,12,27,15.10
2015,08,09,12,28,15.10
2015,08,09,12,29,15.10
2015,08,09,12,30,15.10
2015,08,09,12,31,15.10
2015,08,09,12,32,15.10
2015,08,09,12,33,15.10
2015,08,09,12,34,15.10
2015,08,09,12,35,15.10
2015,08,09,12,36,15.10
2015,08,09,12,37,15.10
2015,08,09,12,38,15.10
2015,08,09,12,39,15.10
2015,08,09,12,40,15.10
2015,08,09,12,41,15.10
2015,08,09,12,42,15.10
2015,08,09,12,43,15.10
2015,08,09,12,44,15.10
2015,08,09,12,45,15.10
2015,08,09,12,46,15.30
2015,08,09,12,47,15.30
2015,08,09,12,48,15.30
2015,08,09,12,49,15.30
2015,08,09,12,50,15.30
2015,08,09,12,51,15.30
2015,08,09,12,52,15.30
2015,08,09,12,53,15.30
2015,08,09,12,54,15.30
2015,08,09,12,55,15.30
2015,08,09,12,56,15.30
2015,08,09,12,57,15.30
2015,08,09,12,58,15.30
2015,08,09,12,59,15.30
2015,08,09,13,00,15.30
2015,08,09,13,01,15.30
2015,08,09,13,02,15.30
2015,08,09,13,03,15.30
2015,08,09,13,04,15.30
2015,08,09,13,05,15.30
2015,08,09,13,06,15.30
2015,08,09,13,07,15.30
2015,08,09,13,08,15.30
2015,08,09,13,09,15.30
2015,08,09,13,10,15.30
2015,08,09,13,11,15.30
2015,08,09,13,12,15.30
2015,08,09,13,13,15.30
2015,08,09,13,14,15.30
2015,08,09,13,15,15.30
2015,08,09,13,16,15.80
2015,08,09,13,17,15.80
2015,08,09,13,18,15.80
2015,08,09,13,19,15.80
2015,08,09,13,20,15.80
2015,08,09,13,21,15.80
2015,08,09,13,22,15.80
2015,08,09,13,23,15.80
2015,08,09,13,24,15.80
2015,08,09,13,25,15.80
2015,08,09,13,26,15.80
2015,08,09,13,27,15.80
2015,08,09,13,28,15.80
2015,08,09,13,29,15.80
2015,08,09,13,30,15.80
2015,08,09,13,31,15.80
2015,08,09,13,32,15.80
2015,08,09,13,33,15.80
2015,08,09,13,34,15.80
2015,08,09,13,35,15.80
2015,08,09,13,36,15.80
2015,08,09,13,37,15.80
2015,08,09,13,38,15.80
2015,08,09,13,39,15.80
2015,08,09,13,40,15.80
2015,08,09,13,41,15.80
2015,08,09,13,42,15.80
2015,08,09,13,43,15.80
2015,08,09,13,44,15.80
2015,08,09,13,45,15.80
2015,08,09,13,46,16.30
2015,08,09,13,47,16.30
2015,08,09,13,48,16.30
2015,08,09,13,49,16.30
2015,08,09,13,50,16.30
2015,08,09,13,51,16.30
2015,08,09,13,52,16.30
2015,08,09,13,53,16.30
2015,08,09,13,54,16.30
2015,08,09,13,55,16.30
2015,08,09,13,56,16.30
2015,08,09,13,57,16.30
2015,08,09,13,58,16.30
2015,08,09,13,59,16.30
2015,08,09,14,00,16.30
2015,08,09,14,01,16.30
2015,08,09,14,02,16.30
2015,08,09,14,03,16.30
2015,08,09,14,04,16.30
2015,08,09,14,05,16.30
2015,08,09,14,06,16.30
2015,08,09,14,07,16.30
2015,08,09,14,08,16.30
2015,08,09,14,09,16.30
2015,08,09,14,10,16.30
2015,08,09,14,11,16.30
2015,08,09,14,12,16.30
2015,08,09,14,13,16.30
2015,08,09,14,14,16.30
2015,08,09,14,15,16.30
2015,08,09,14,16,17.10
2015,08,09,14,17,17.10
2015,08,09,14,18,17.10
2015,08,09,14,19,17.10
2015,08,09,14,20,17.10
2015,08,09,14,21,17.10
2015,08,09,14,22,17.10
2015,08,09,14,23,17.10
2015,08,09,14,24,17.10
2015,08,09,14,25,17.10
2015,08,09,14,26,17.10
2015,08,09,14,27,17.10
2015,08,09,14,28,17.10
2015,08,09,14,29,17.10
2015,08,09,14,30,17.10
2015,08,09,14,31,17.10
2015,08,09,14,32,17.10
2015,08,09,14,33,17.10
2015,08,09,14,34,17.10
2015,08,09,14,35,17.10
2015,08,09,14,36,17.10
2015,08,09,14,37,17.10
2015,08,09,14,38,17.10
2015,08,09,14,39,17.10
2015,08,09,14,40,17.10
2015,08,09,14,41,17.10
2015,08,09,14,42,17.10
2015,08,09,14,43,17.10
2015,08,09,14,44,17.10
2015,08,09,14,45,17.10
2015,08,09,14,46,16.90
2015,08,09,14,47,16.90
2015,08,09,14,48,16.90
2015,08,09,14,49,16.90
2015,08,09,14,50,16.90
2015,08,09,14,51,16.90
2015,08,09,14,52,16.90
2015,08,09,14,53,16.90
2015,08,09,14,54,16.90
2015,08,09,14,55,16.90
2015,08,09,14,56,16.90
2015,08,09,14,57,16.90
2015,08,09,14,58,16.90
2015,08,09,14,59,16.90
2015,08,09,15,00,16.90
2015,08,09,15,01,16.90
2015,08,09,15,02,16.90
2015,08,09,15,03,16.90
2015,08,09,15,04,16.90
2015,08,09,15,05,16.90
2015,08,09,15,06,16.90
2015,08,09,15,07,16.90
2015,08,09,15,08,16.90
2015,08,09,15,09,16.90
2015,08,09,15,10,16.90
2015,08,09,15,11,16.90
2015,08,09,15,12,16.90
2015,08,09,15,13,16.90
2015,08,09,15,14,16.90
2015,08,09,15,15,16.90
2015,08,09,15,16,17.30
2015,08,09,15,17,17.30
2015,08,09,15,18,17.30
2015,08,09,15,19,17.30
2015,08,09,15,20,17.30
2015,08,09,15,21,17.30
2015,08,09,15,22,17.30
2015,08,09,15,23,17.30
2015,08,09,15,24,17.30
2015,08,09,15,25,17.30
2015,08,09,15,26,17.30
2015,08,09,15,27,17.30
2015,08,09,15,28,17.30
2015,08,09,15,29,17.30
2015,08,09,15,30,17.30
2015,08,09,15,31,17.30
2015,08,09,15,32,17.30
2015,08,09,15,33,17.30
2015,08,09,15,34,17.30
2015,08,09,15,35,17.30
2015,08,09,15,36,17.30
2015,08,09,15,37,17.30
2015,08,09,15,38,17.30
2015,08,09,15,39,17.30
2015,08,09,15,40,17.30
2015,08,09,15,41,17.30
2015,08,09,15,42,17.30
2015,08,09,15,43,17.30
2015,08,09,15,44,17.30
2015,08,09,15,45,17.30
2015,08,09,15,46,17.80
2015,08,09,15,47,17.80
2015,08,09,15,48,17.80
2015,08,09,15,49,17.80
2015,08,09,15,50,17.80
2015,08,09,15,51,17.80
2015,08,09,15,52,17.80
2015,08,09,15,53,17.80
2015,08,09,15,54,17.80
2015,08,09,15,55,17.80
2015,08,09,15,56,17.80
2015,08,09,15,57,17.80
2015,08,09,15,58,17.80
2015,08,09,15,59,17.80
2015,08,09,16,00,17.80
2015,08,09,16,01,17.80
2015,08,09,16,02,17.80
2015,08,09,16,03,17.80
2015,08,09,16,04,17.80
2015,08,09,16,05,17.80
2015,08,09,16,06,17.80
2015,08,09,16,07,17.80
2015,08,09,16,08,17.80
2015,08,09,16,09,17.80
2015,08,09,16,10,17.80
2015,08,09,16,11,17.80
2015,08,09,16,12,17.80
2015,08,09,16,13,17.80
2015,08,09,16,14,17.80
2015,08,09,16,15,17.80
2015,08,09,16,16,17.70
2015,08,09,16,17,17.70
2015,08,09,16,18,17.70
2015,08,09,16,19,17.70
2015,08,09,16,20,17.70
2015,08,09,16,21,17.70
2015,08,09,16,22,17.70
2015,08,09,16,23,17.70
2015,08,09,16,24,17.70
2015,08,09,16,25,17.70
2015,08,09,16,26,17.70
2015,08,09,16,27,17.70
2015,08,09,16,28,17.70
2015,08,09,16,29,17.70
2015,08,09,16,30,17.70
2015,08,09,16,31,17.70
2015,08,09,16,32,17.70
2015,08,09,16,33,17.70
2015,08,09,16,34,17.70
2015,08,09,16,35,17.70
2015,08,09,16,36,17.70
2015,08,09,16,37,17.70
2015,08,09,16,38,17.70
2015,08,09,16,39,17.70
2015,08,09,16,40,17.70
2015,08,09,16,41,17.70
2015,08,09,16,42,17.70
2015,08,09,16,43,17.70
2015,08,09,16,44,17.70
2015,08,09,16,45,17.70
2015,08,09,16,46,15.90
2015,08,09,16,47,15.90
2015,08,09,16,48,15.90
2015,08,09,16,49,15.90
2015,08,09,16,50,15.90
2015,08,09,16,51,15.90
2015,08,09,16,52,15.90
2015,08,09,16,53,15.90
2015,08,09,16,54,15.90
2015,08,09,16,55,15.90
2015,08,09,16,56,15.90
2015,08,09,16,57,15.90
2015,08,09,16,58,15.90
2015,08,09,16,59,15.90
2015,08,09,17,00,15.90
2015,08,09,17,01,15.90
2015,08,09,17,02,15.90
2015,08,09,17,03,15.90
2015,08,09,17,04,15.90
2015,08,09,17,05,15.90
2015,08,09,17,06,15.90
2015,08,09,17,07,15.90
2015,08,09,17,08,15.90
2015,08,09,17,09,15.90
2015,08,09,17,10,15.90
2015,08,09,17,11,15.90
2015,08,09,17,12,15.90
2015,08,09,17,13,15.90
2015,08,09,17,14,15.90
2015,08,09,17,15,15.90
2015,08,09,17,16,15.40
2015,08,09,17,17,15.40
2015,08,09,17,18,15.40
2015,08,09,17,19,15.40
2015,08,09,17,20,15.40
2015,08,09,17,21,15.40
2015,08,09,17,22,15.40
2015,08,09,17,23,15.40
2015,08,09,17,24,15.40
2015,08,09,17,25,15.40
2015,08,09,17,26,15.40
2015,08,09,17,27,15.40
2015,08,09,17,28,15.40
2015,08,09,17,29,15.40
2015,08,09,17,30,15.40
2015,08,09,17,31,15.40
2015,08,09,17,32,15.40
2015,08,09,17,33,15.40
2015,08,09,17,34,15.40
2015,08,09,17,35,15.40
2015,08,09,17,36,15.40
2015,08,09,17,37,15.40
2015,08,09,17,38,15.40
2015,08,09,17,39,15.40
2015,08,09,17,40,15.40
2015,08,09,17,41,15.40
2015,08,09,17,42,15.40
2015,08,09,17,43,15.40
2015,08,09,17,44,15.40
2015,08,09,17,45,15.40
2015,08,09,17,46,15.00
2015,08,09,17,47,15.00
2015,08,09,17,48,15.00
2015,08,09,17,49,15.00
2015,08,09,17,50,15.00
2015,08,09,17,51,15.00
2015,08,09,17,52,15.00
2015,08,09,17,53,15.00
2015,08,09,17,54,15.00
2015,08,09,17,55,15.00
2015,08,09,17,56,15.00
2015,08,09,17,57,15.00
2015,08,09,17,58,15.00
2015,08,09,17,59,15.00
2015,08,09,18,00,15.00
2015,08,09,18,01,15.00
2015,08,09,18,02,15.00
2015,08,09,18,03,15.00
2015,08,09,18,04,15.00
2015,08,09,18,05,15.00
2015,08,09,18,06,15.00
2015,08,09,18,07,15.00
2015,08,09,18,08,15.00
2015,08,09,18,09,15.00
2015,08,09,18,10,15.00
2015,08,09,18,11,15.00
2015,08,09,18,12,15.00
2015,08,09,18,13,15.00
2015,08,09,18,14,15.00
2015,08,09,18,15,15.00
2015,08,09,18,16,14.90
2015,08,09,18,17,14.90
2015,08,09,18,18,14.90
2015,08,09,18,19,14.90
2015,08,09,18,20,14.90
2015,08,09,18,21,14.90
2015,08,09,18,22,14.90
2015,08,09,18,23,14.90
2015,08,09,18,24,14.90
2015,08,09,18,25,14.90
2015,08,09,18,26,14.90
2015,08,09,18,27,14.90
2015,08,09,18,28,14.90
2015,08,09,18,29,14.90
2015,08,09,18,30,14.90
2015,08,09,18,31,14.90
2015,08,09,18,32,14.90
2015,08,09,18,33,14.90
2015,08,09,18,34,14.90
2015,08,09,18,35,14.90